Location: Lango�lan
(48.1202°N, 3.2340°W)
Time: 10:15:14
(UTC+00:00)

Cosmos 540 Rocket - Pass Details

Date: 23 October 2019
Orbit: 740 x 754 km, 74.1° (Epoch: 13 November)

Event Time Altitude Azimuth Distance (km) Brightness Sun altitude
Rises 05:36:38 0° 338° (NNW) 3,215 6.5 -11.8°
Reaches altitude 10° 05:39:01 10° 340° (NNW) 2,285 5.7 -11.4°
Maximum altitude 05:44:12 73° 66° (ENE) 788 3.7 -10.6°
Drops below altitude 10° 05:49:19 10° 151° (SSE) 2,261 6.4 -9.7°
Sets 05:51:40 0° 153° (SSE) 3,178 7.2 -9.3°
